Tracking 21094 objects as of 12-Aug-2020
HD Live streaming from Space Station
objects crossing your sky now
Track the most recent launched group of Starlink satellites

NINGXIA-1 2

Track NINGXIA-1 2 now!
10-day predictions


NORAD ID: 44780
Int'l Code: 2019-076B
Perigee: 889.7 km
Apogee: 900.6 km
Inclination: 45.0 °
Period: 102.7 minutes
Semi major axis: 7266 km
RCS: Unknown
Launch date: November 13, 2019
Source: People's Republic of China (PRC)
Launch site: Taiyaun Space Center, China (TSC)
aabbcc
Your satellite tracking list
Your tracking list is empty




NASA's NSSDC Master Catalog

Two Line Element Set (TLE):
1 44780U 19076B   20225.50172388 -.00000130  00000-0  00000+0 0  9995
2 44780  45.0134 355.5800 0007525 136.2601 223.8830 14.01668445 38338
Source of the keplerian elements: AFSPC